Miscellaneous Local Product
Issued by NWS North Platte, NE

Home | Current Version | Previous Version | Text Only | Print | Product List | Glossary On
Versions: 1 2 3 4 5 6 7 8 9 10 11 12 13 14 15 16 17 18 19 20 21 22 23 24 25 26 27 28 29 30 31 32 33 34 35 36 37 38 39 40 41 42 43 44 45 46 47 48 49 50
000
AXUS43 KLBF 231610
MISLBF


WESTERN AND NORTH CENTRAL NEBRASKA HOURLY WEATHER ROUNDUP
NATIONAL WEATHER SERVICE NORTH PLATTE NE
1100 AM CDT WED APR 23 2014

***STATIONS NOT REPORTING VARIABLES SUCH AS SKY/WEATHER OR
PRESSURE ARE PROVIDED BY THE NEBRASKA DEPARTMENT OF
ROADS...RAWS...AND APRS NETWORKS...AND ARE NOT UNDER
NATIONAL WEATHER SERVICE QUALITY CONTROL***

...OBSERVATIONS IN AND NEAR THE EASTERN PANHANDLE OF NEBRASKA...

CITY           SKY/WX    TMP DP  RH WIND       PRES   REMARKS
PINE RIDGE     CLOUDY    60  40  47 W12       29.56R
CHADRON        CLOUDY    64  36  35 W12G23    29.55S
ALLIANCE       CLOUDY    61  38  42 NW17      29.59S
SIDNEY         CLOUDY    58  33  39 NW25      29.64R
WHITECLAY        N/A     61  38  41 W9          N/A
CRESCENT LAKE    N/A     62  46  56 NW16G23     N/A
LISCO            N/A     65  37  34 W15         N/A
BIG SPRINGS      N/A     57  48  73 CALM        N/A
LEWELLEN         N/A     65  44  46 W14         N/A
$$

...OBSERVATIONS IN SOUTHWEST NEBRASKA AND FAR NORTHEAST COLORADO...

CITY           SKY/WX    TMP DP  RH WIND       PRES   REMARKS
WRAY           FAIR      69  43  39 SW17G26   29.57R
HOLYOKE        FAIR      63  41  45 NW17G25   29.61R
IMPERIAL       CLOUDY    66  43  43 NW14      29.58R
OGALLALA       CLOUDY    63  45  52 W13       29.57R
NORTH PLATTE   CLOUDY    65  47  52 S16       29.55F
MCCOOK         CLOUDY    71  46  40 S16G23    29.55F
LEXINGTON      CLOUDY    64  46  52 S18G25    29.59S
PAXTON           N/A     59  48  67 SE12        N/A
SUTHERLAND       N/A     64  48  56 S13         N/A
GOTHENBURG       N/A     64  48  56 SE3G15      N/A
CALLAWAY         N/A     62  46  56 S28         N/A
$$

...OBSERVATIONS IN NORTH CENTRAL NEBRASKA...

CITY           SKY/WX    TMP DP  RH WIND       PRES   REMARKS
VALENTINE      PTSUNNY   62  40  44 S18       29.52F
THEDFORD       CLOUDY    66  42  42 S17       29.55S
AINSWORTH      CLOUDY    64  42  44 S23G31    29.56R
O`NEILL        MOSUNNY   62  36  37 S33G46    29.59F
ORD            PTSUNNY   64  40  41 S28G39    29.61F
BROKEN BOW     CLOUDY    63  42  46 S26G37    29.59S
BROWNLEE         N/A     62  41  46 S20         N/A
SPRINGVIEW       N/A     64  43  47 S12G26      N/A
DUNNING          N/A     66  44  43 S16         N/A
BREWSTER         N/A     68  45  43 S25         N/A
ROSE             N/A     65  46  49 SE28        N/A
NEWPORT          N/A     63  42  46 S30         N/A
COMSTOCK         N/A     68  45  43 S26         N/A
CHAMBERS         N/A     65  42  43 E22G32      N/A
EWING            N/A     61  40  45 S22G31      N/A
$$

...SOME WEATHER OBSERVATIONS FROM AROUND THE REGION...

CITY           SKY/WX    TMP DP  RH WIND       PRES   REMARKS
DENVER         MOSUNNY   68  28  22 NW17      29.63S
LARAMIE        MOSUNNY   47  24  40 W23G29    29.72F
CHEYENNE       SUNNY     55  30  38 W18G25    29.70R
SCOTTSBLUFF    PTSUNNY   60  31  33 W20       29.61R
RAPID CITY     CLOUDY    65  41  41 N10       29.49R
PIERRE         CLOUDY    57  38  48 SE22G31   29.50F
WINNER         FAIR      66  39  37 S22G29    29.53F
SIOUX FALLS    CLOUDY    53  35  50 SE28G43   29.77F
OMAHA          LGT RAIN  50  42  74 SE25G32   29.86F
GRAND ISLAND   PTSUNNY   63  41  44 S33G43    29.66F
KANSAS CITY    CLOUDY    57  35  43 SE17      29.97F
WICHITA        PTSUNNY   73  49  42 S21G33    29.83F
HAYS           PTSUNNY  N/A N/A N/A S25G32    29.68F
LIBERAL        PTSUNNY   77  50  38 SW32G40   29.74S
GOODLAND       CLOUDY    70  45  40 SW22G31   29.59F
$$



USA.gov is the U.S. government's official web portal to all federal, state and local government web resources and services.